Location: Broletto
(44.6000°N, 10.5833°E)
Time: 07:44:58
(UTC+00:00)

Cosmos 1992 Rocket - Pass Details

Date: 18 April 2021
Orbit: 759 x 765 km, 74.0° (Epoch: 06 May)

Event Time Altitude Azimuth Distance (km) Brightness Sun altitude
Rises 18:49:20 0° 343° (NNW) 3,230 7.9 -8.0°
Reaches altitude 10° 18:51:48 10° 348° (NNW) 2,301 7.0 -8.4°
Maximum altitude 18:56:52 50° 64° (ENE) 963 4.3 -9.2°
Enters shadow 19:01:52 10° 140° (SE) 2,272 5.9 -10.0°
